Weather History for Three Rivers, MI

Change the Weather History Date:

Wednesday, July 4, 2012

  Actual Average Record
Temperature  
Mean Temperature 86 °F -  
Max Temperature 100 °F 83 °F 100 °F (2012)
Min Temperature 72 °F 59 °F 45 °F (1963)
Cooling Degree Days 21    
Growing Degree Days 36 (Base 50)    
Moisture  
Dew Point 67 °F    
Average Humidity 57    
Maximum Humidity 90    
Minimum Humidity 27    
Precipitation  
Precipitation 0.00 in - - ()
Sea Level Pressure  
Sea Level Pressure 29.89 in    
Wind  
Wind Speed 5 mph (WSW)    
Max Wind Speed 15 mph    
Max Gust Speed 22 mph    
Visibility 9 miles    
Events      
Averages and records for this station are not official NWS values.
T = Trace of Precipitation, MM = Missing Value Source: NWS Daily Summary

Daily Weather History Graph

Daily Weather History Graph

Search for Another Location

Airport:

Trip Planner

Search our weather history database for the weather conditions in past years. The results will help you decide how hot, cold, wet, or windy it might be!

Date:

Astronomy

Jul. 04, 2012 Rise Set
Actual Time 6:12 AM EDT 9:20 PM EDT
Civil Twilight 5:38 AM EDT 9:54 PM EDT
Nautical Twilight 4:54 AM EDT 10:38 PM EDT
Astronomical Twilight 4:02 AM EDT 11:30 PM EDT
Moon 9:57 PM EDT (7/4) 7:15 AM EDT (7/4)
Length of Visible Light 16h 16m
Length of Day
15h 08m
Full, 99% of the Moon is Illuminated
Jul 4
Full
Jul 10
Last Quarter
Jul 19
New
Jul 26
First Quarter
Aug 1
Full

Hourly Weather History & Observations

Time (EDT) Temp. Heat Index Dew Point Humidity Pressure Visibility Wind Dir Wind Speed Gust Speed Precip Events Conditions
12:14 AM 79.5 °F - 70.3 °F 73% 29.87 in 10.0 mi SW 3.5 mph - N/A   Clear
12:33 AM 79.2 °F - 70.5 °F 75% 29.87 in 10.0 mi SSW 4.6 mph - N/A   Clear
12:53 AM 78.8 °F - 70.7 °F 76% 29.87 in 10.0 mi SSW 4.6 mph - N/A   Clear
1:14 AM 78.3 °F - 70.7 °F 77% 29.87 in 10.0 mi SSW 3.5 mph - N/A   Clear
1:33 AM 77.9 °F - 70.7 °F 78% 29.87 in 10.0 mi SSW 3.5 mph - N/A   Clear
1:53 AM 77.4 °F - 70.3 °F 79% 29.87 in 10.0 mi Calm Calm - N/A   Clear
2:14 AM 77.2 °F - 70.5 °F 80% 29.87 in 10.0 mi SW 3.5 mph - N/A   Clear
2:33 AM 76.8 °F - 70.3 °F 80% 29.87 in 10.0 mi SSW 3.5 mph - N/A   Clear
2:53 AM 76.3 °F - 70.3 °F 82% 29.87 in 10.0 mi Calm Calm - N/A   Clear
3:14 AM 75.6 °F - 70.3 °F 84% 29.87 in 10.0 mi Calm Calm - N/A   Clear
3:33 AM 75.6 °F - 70.0 °F 83% 29.87 in 10.0 mi Calm Calm - N/A   Clear
3:53 AM 74.5 °F - 69.8 °F 85% 29.87 in 10.0 mi South 3.5 mph - N/A   Clear
4:13 AM 74.3 °F - 70.0 °F 86% 29.87 in 7.0 mi Calm Calm - N/A   Clear
4:33 AM 74.5 °F - 70.0 °F 86% 29.88 in 7.0 mi Calm Calm - N/A   Clear
4:54 AM 73.4 °F - 69.4 °F 87% 29.88 in 7.0 mi Calm Calm - N/A   Clear
5:13 AM 73.4 °F - 69.8 °F 88% 29.89 in 7.0 mi Calm Calm - N/A   Clear
5:33 AM 73.4 °F - 69.8 °F 88% 29.89 in 7.0 mi Calm Calm - N/A   Clear
5:54 AM 73.6 °F - 69.8 °F 88% 29.90 in 7.0 mi Calm Calm - N/A   Clear
6:13 AM 72.9 °F - 69.1 °F 88% 29.89 in 7.0 mi Calm Calm - N/A   Clear
6:33 AM 72.5 °F - 69.4 °F 90% 29.89 in 5.0 mi Calm Calm - N/A   Clear
6:54 AM 73.6 °F - 70.3 °F 90% 29.90 in 5.0 mi Calm Calm - N/A   Clear
7:13 AM 75.2 °F - 70.9 °F 86% 29.90 in 5.0 mi Calm Calm - N/A   Mostly Cloudy
7:33 AM 76.1 °F - 71.2 °F 85% 29.90 in 7.0 mi South 3.5 mph - N/A   Mostly Cloudy
7:53 AM 76.8 °F - 71.6 °F 84% 29.91 in 7.0 mi Calm Calm - N/A   Mostly Cloudy
8:13 AM 79.2 °F - 71.6 °F 78% 29.91 in 10.0 mi SSW 4.6 mph - N/A   Scattered Clouds
8:33 AM 80.1 °F 83.7 °F 71.4 °F 75% 29.92 in 10.0 mi SSW 5.8 mph - N/A   Clear
8:53 AM 81.0 °F 85.1 °F 71.6 °F 73% 29.92 in 10.0 mi SW 3.5 mph - N/A   Scattered Clouds
9:14 AM 83.7 °F 88.6 °F 71.4 °F 66% 29.91 in 10.0 mi SW 5.8 mph - N/A   Scattered Clouds
9:33 AM 86.4 °F 91.4 °F 70.3 °F 59% 29.91 in 10.0 mi SW 6.9 mph - N/A   Clear
9:53 AM 88.2 °F 92.9 °F 69.8 °F 54% 29.90 in 10.0 mi WSW 8.1 mph - N/A   Clear
10:13 AM 90.1 °F 94.9 °F 69.4 °F 50% 29.90 in 10.0 mi WSW 6.9 mph - N/A   Scattered Clouds
10:33 AM 91.6 °F 96.2 °F 68.5 °F 47% 29.90 in 10.0 mi WSW 8.1 mph - N/A   Scattered Clouds
10:54 AM 90.5 °F 94.6 °F 68.4 °F 48% 29.90 in 10.0 mi West 10.4 mph 18.4 mph N/A   Mostly Cloudy
11:13 AM 91.2 °F 96.0 °F 69.1 °F 48% 29.90 in 10.0 mi West 11.5 mph - N/A   Scattered Clouds
11:33 AM 93.4 °F 98.6 °F 69.1 °F 45% 29.90 in 10.0 mi West 12.7 mph 17.3 mph N/A   Clear
11:53 AM 93.9 °F 98.6 °F 68.4 °F 43% 29.90 in 10.0 mi West 9.2 mph - N/A   Clear
12:13 PM 95.5 °F 100.0 °F 67.8 °F 40% 29.90 in 10.0 mi WNW 13.8 mph 19.6 mph N/A   Clear
12:34 PM 95.9 °F 100.1 °F 67.1 °F 39% 29.90 in 10.0 mi West 11.5 mph 16.1 mph N/A   Clear
12:53 PM 97.9 °F 100.9 °F 65.3 °F 34% 29.90 in 10.0 mi West 13.8 mph 18.4 mph N/A   Clear
1:13 PM 95.9 °F 98.0 °F 64.2 °F 35% 29.90 in 10.0 mi West 11.5 mph 19.6 mph N/A   Clear
1:34 PM 97.9 °F 100.9 °F 65.1 °F 34% 29.90 in 10.0 mi West 12.7 mph 20.7 mph N/A   Scattered Clouds
1:53 PM 98.6 °F 101.6 °F 64.9 °F 33% 29.89 in 10.0 mi West 12.7 mph 18.4 mph N/A   Mostly Cloudy
2:13 PM 98.8 °F 101.9 °F 64.9 °F 33% 29.89 in 10.0 mi WSW 12.7 mph 19.6 mph N/A   Mostly Cloudy
2:34 PM 98.8 °F 101.4 °F 63.9 °F 32% 29.89 in 10.0 mi West 11.5 mph 17.3 mph N/A   Mostly Cloudy
2:53 PM 100.2 °F 102.7 °F 63.3 °F 30% 29.89 in 10.0 mi West 11.5 mph 17.3 mph N/A   Scattered Clouds
3:13 PM 99.9 °F 101.5 °F 62.1 °F 29% 29.89 in 10.0 mi West 10.4 mph - N/A   Clear
3:33 PM 99.9 °F 101.5 °F 62.6 °F 29% 29.89 in 10.0 mi West 15.0 mph 21.9 mph N/A   Clear
3:53 PM 99.5 °F 100.4 °F 60.8 °F 28% 29.89 in 10.0 mi WNW 10.4 mph 17.3 mph N/A   Clear
4:14 PM 97.7 °F 98.5 °F 61.2 °F 30% 29.89 in 10.0 mi West 9.2 mph - N/A   Clear
4:33 PM 100.0 °F 100.7 °F 60.1 °F 27% 29.89 in 10.0 mi WNW 11.5 mph 17.3 mph N/A   Clear
4:53 PM 99.7 °F 100.7 °F 61.5 °F 28% 29.89 in 10.0 mi West 10.4 mph - N/A   Clear
5:14 PM 99.7 °F 100.7 °F 61.2 °F 28% 29.88 in 10.0 mi West 12.7 mph 18.4 mph N/A   Clear
5:33 PM 98.6 °F 100.0 °F 61.9 °F 30% 29.87 in 10.0 mi WNW 6.9 mph - N/A   Clear
5:53 PM 98.4 °F 99.7 °F 62.1 °F 30% 29.87 in 10.0 mi NW 11.5 mph - N/A   Clear
6:14 PM 98.2 °F 99.4 °F 61.7 °F 30% 29.87 in 10.0 mi WNW 6.9 mph - N/A   Clear
6:33 PM 97.3 °F 98.4 °F 61.7 °F 31% 29.87 in 10.0 mi NW 5.8 mph - N/A   Clear
6:53 PM 96.8 °F 97.5 °F 61.9 °F 31% 29.87 in 10.0 mi WNW 9.2 mph - N/A   Clear
7:13 PM 96.8 °F 97.5 °F 61.9 °F 31% 29.87 in 10.0 mi WNW 6.9 mph - N/A   Clear
7:33 PM 95.9 °F 97.0 °F 62.8 °F 33% 29.87 in 10.0 mi NW 6.9 mph - N/A   Clear
7:54 PM 95.4 °F 96.6 °F 63.1 °F 34% 29.86 in 10.0 mi West 6.9 mph - N/A   Clear
8:13 PM 94.1 °F 95.9 °F 64.4 °F 37% 29.86 in 10.0 mi West 4.6 mph - N/A   Clear
8:33 PM 92.3 °F 95.1 °F 66.2 °F 42% 29.87 in 10.0 mi Calm Calm - N/A   Clear
8:53 PM 91.0 °F 93.4 °F 65.8 °F 43% 29.87 in 10.0 mi Calm Calm - N/A   Clear
9:13 PM 88.7 °F 91.1 °F 66.4 °F 47% 29.88 in 10.0 mi Calm Calm - N/A   Clear
9:33 PM 86.9 °F 89.6 °F 66.9 °F 51% 29.89 in 10.0 mi Calm Calm - N/A   Clear
9:53 PM 86.0 °F 89.1 °F 67.5 °F 54% 29.88 in 10.0 mi Calm Calm - N/A   Clear
10:13 PM 83.1 °F 86.6 °F 68.9 °F 62% 29.89 in 10.0 mi Calm Calm - N/A   Clear
10:33 PM 82.0 °F 85.3 °F 68.7 °F 64% 29.89 in 10.0 mi Calm Calm - N/A   Clear
10:54 PM 82.8 °F 85.8 °F 68.2 °F 61% 29.88 in 10.0 mi Calm Calm - N/A   Clear
11:13 PM 82.6 °F 86.4 °F 69.6 °F 65% 29.88 in 10.0 mi Calm Calm - N/A   Clear
11:33 PM 81.7 °F 85.2 °F 69.6 °F 67% 29.89 in 10.0 mi Calm Calm - N/A   Clear
11:54 PM 81.5 °F 85.3 °F 70.3 °F 69% 29.90 in 10.0 mi Calm Calm - N/A   Clear